Weather History for KFET - May, 2013

Change the Weather History Date:

Friday, May 24, 2013

  Actual Average Record
Temperature  
Mean Temperature 62 °F -  
Max Temperature 75 °F 77 °F 100 °F (1967)
Min Temperature 50 °F 53 °F 39 °F (1949)
Degree Days  
Heating Degree Days 2    
Growing Degree Days 12 (Base 50)    
Moisture  
Dew Point 48 °F    
Average Humidity 58    
Maximum Humidity 81    
Minimum Humidity 41    
Precipitation  
Precipitation 0.00 in - - ()
Sea Level Pressure  
Sea Level Pressure 30.19 in    
Wind  
Wind Speed 11 mph (SE)    
Max Wind Speed 23 mph    
Max Gust Speed 31 mph    
Visibility 10 miles    
Events Thunderstorm    
Averages and records for this station are not official NWS values.
T = Trace of Precipitation, MM = Missing Value Source: NWS Daily Summary

Daily Weather History Graph

Daily Weather History Graph

Search for Another Location

Airport or City:

Trip Planner

Search our weather history database for the weather conditions in past years. The results will help you decide how hot, cold, wet, or windy it might be!

Date:

Astronomy

May. 24, 2013 Rise Set
Actual Time 5:59 AM CDT 8:47 PM CDT
Civil Twilight 5:26 AM CDT 9:19 PM CDT
Nautical Twilight 4:45 AM CDT 10:00 PM CDT
Astronomical Twilight 3:58 AM CDT 10:48 PM CDT
Moon 8:30 PM CDT (5/24) 5:32 AM CDT (5/24)
Length of Visible Light 15h 52m
Length of Day
14h 47m
Full, 100% of the Moon is Illuminated
May 24
Full
May 24
Full
May 31
Last Quarter
Jun 8
New
Jun 16
First Quarter

Hourly Weather History & Observations

Time (CDT) Temp. Dew Point Humidity Pressure Visibility Wind Dir Wind Speed Gust Speed Precip Events Conditions
12:15 AM 57.0 °F 44.2 °F 62% 30.25 in 10.0 mi ENE 6.9 mph - N/A   Clear
12:35 AM 57.2 °F 44.1 °F 62% 30.26 in 10.0 mi ENE 5.8 mph - N/A   Clear
12:55 AM 56.3 °F 44.2 °F 64% 30.25 in 10.0 mi East 8.1 mph - N/A   Clear
1:15 AM 56.3 °F 44.1 °F 64% 30.24 in 10.0 mi ENE 9.2 mph - N/A   Clear
1:35 AM 55.9 °F 44.1 °F 64% 30.25 in 10.0 mi East 5.8 mph - N/A   Clear
1:55 AM 54.7 °F 44.2 °F 68% 30.26 in 10.0 mi East 5.8 mph - N/A   Clear
2:15 AM 54.9 °F 44.2 °F 67% 30.24 in 10.0 mi East 9.2 mph - N/A   Clear
2:35 AM 54.7 °F 44.6 °F 69% 30.24 in 10.0 mi East 8.1 mph - N/A   Clear
2:55 AM 54.1 °F 44.6 °F 70% 30.25 in 10.0 mi East 5.8 mph - N/A   Clear
3:15 AM 52.9 °F 44.6 °F 73% 30.26 in 10.0 mi East 8.1 mph - N/A   Clear
3:35 AM 52.7 °F 44.8 °F 74% 30.25 in 10.0 mi East 6.9 mph - N/A   Clear
3:55 AM 52.7 °F 45.0 °F 75% 30.25 in 10.0 mi East 6.9 mph - N/A   Clear
4:15 AM 52.7 °F 45.0 °F 75% 30.24 in 10.0 mi East 8.1 mph - N/A   Clear
4:35 AM 52.3 °F 45.0 °F 76% 30.26 in 10.0 mi SE 5.8 mph - N/A   Clear
4:55 AM 50.5 °F 45.0 °F 81% 30.27 in 10.0 mi SE 6.9 mph - N/A   Clear
5:15 AM 50.9 °F 45.1 °F 81% 30.27 in 10.0 mi SE 8.1 mph - N/A   Clear
5:35 AM 52.0 °F 45.3 °F 78% 30.27 in 10.0 mi ESE 8.1 mph - N/A   Clear
5:55 AM 52.5 °F 45.3 °F 76% 30.27 in 10.0 mi ESE 9.2 mph - N/A   Scattered Clouds
6:15 AM 52.2 °F 45.1 °F 77% 30.28 in 10.0 mi ESE 8.1 mph - N/A   Clear
6:35 AM 52.9 °F 45.5 °F 76% 30.28 in 10.0 mi SE 9.2 mph - N/A   Scattered Clouds
6:55 AM 54.5 °F 45.7 °F 72% 30.28 in 10.0 mi ESE 11.5 mph - N/A   Mostly Cloudy
7:15 AM 54.3 °F 45.7 °F 73% 30.28 in 10.0 mi ESE 11.5 mph 17.3 mph N/A   Overcast
7:35 AM 54.5 °F 46.2 °F 74% 30.28 in 10.0 mi ESE 11.5 mph - N/A   Scattered Clouds
7:55 AM 55.6 °F 46.8 °F 72% 30.29 in 10.0 mi ESE 9.2 mph - N/A   Scattered Clouds
8:15 AM 56.5 °F 47.8 °F 73% 30.29 in 10.0 mi SE 10.4 mph - N/A   Scattered Clouds
8:35 AM 57.2 °F 48.4 °F 72% 30.28 in 10.0 mi SE 9.2 mph - N/A   Clear
8:55 AM 58.3 °F 49.3 °F 72% 30.28 in 10.0 mi SE 10.4 mph - N/A   Scattered Clouds
9:15 AM 59.9 °F 50.0 °F 70% 30.28 in 10.0 mi SE 9.2 mph - N/A   Scattered Clouds
9:35 AM 61.0 °F 50.4 °F 68% 30.28 in 10.0 mi SE 10.4 mph - N/A   Scattered Clouds
9:55 AM 62.8 °F 50.7 °F 65% 30.27 in 10.0 mi SE 12.7 mph - N/A   Scattered Clouds
10:15 AM 64.9 °F 51.1 °F 61% 30.26 in 10.0 mi SE 18.4 mph 23.0 mph N/A   Scattered Clouds
10:35 AM 66.6 °F 49.3 °F 54% 30.23 in 10.0 mi SE 19.6 mph 27.6 mph N/A   Scattered Clouds
10:55 AM 66.9 °F 50.0 °F 54% 30.24 in 10.0 mi SSE 17.3 mph 25.3 mph N/A   Clear
11:15 AM 68.2 °F 49.5 °F 51% 30.23 in 10.0 mi SE 17.3 mph 25.3 mph N/A   Clear
11:35 AM 68.7 °F 49.3 °F 50% 30.23 in 10.0 mi SE 18.4 mph 24.2 mph N/A   Clear
11:55 AM 69.1 °F 49.6 °F 50% 30.23 in 10.0 mi SE 21.9 mph 26.5 mph N/A   Scattered Clouds
12:15 PM 69.3 °F 50.4 °F 51% 30.24 in 10.0 mi SSE 17.3 mph 25.3 mph N/A   Scattered Clouds
12:35 PM 69.3 °F 50.2 °F 51% 30.23 in 10.0 mi SSE 18.4 mph 27.6 mph N/A   Mostly Cloudy
12:55 PM 70.2 °F 51.3 °F 51% 30.23 in 10.0 mi SSE 17.3 mph 27.6 mph N/A   Overcast
1:15 PM 70.3 °F 50.4 °F 49% 30.22 in 10.0 mi SSE 19.6 mph 28.8 mph N/A   Overcast
1:35 PM 70.0 °F 50.2 °F 49% 30.21 in 10.0 mi SSE 19.6 mph 25.3 mph N/A   Overcast
1:55 PM 69.3 °F 50.0 °F 50% 30.21 in 10.0 mi SSE 15.0 mph 24.2 mph N/A   Overcast
2:15 PM 69.1 °F 49.5 °F 50% 30.20 in 10.0 mi SSE 15.0 mph 21.9 mph N/A   Overcast
2:35 PM 70.0 °F 49.1 °F 47% 30.19 in 10.0 mi SSE 16.1 mph - N/A   Overcast
2:55 PM 71.6 °F 48.9 °F 45% 30.17 in 10.0 mi SE 19.6 mph 28.8 mph N/A   Mostly Cloudy
3:15 PM 71.8 °F 47.7 °F 42% 30.16 in 10.0 mi SE 21.9 mph 28.8 mph N/A   Mostly Cloudy
3:35 PM 73.0 °F 48.2 °F 41% 30.14 in 10.0 mi SE 19.6 mph 25.3 mph N/A   Mostly Cloudy
3:55 PM 72.0 °F 48.6 °F 43% 30.13 in 10.0 mi SE 19.6 mph 27.6 mph N/A   Scattered Clouds
4:15 PM 73.6 °F 50.7 °F 45% 30.11 in 10.0 mi ESE 18.4 mph 24.2 mph N/A   Scattered Clouds
4:35 PM 74.8 °F 49.6 °F 41% 30.09 in 10.0 mi SE 19.6 mph 31.1 mph N/A   Clear
4:55 PM 75.4 °F 50.5 °F 42% 30.09 in 10.0 mi SSE 16.1 mph 21.9 mph N/A   Clear
5:15 PM 73.8 °F 49.1 °F 42% 30.08 in 10.0 mi SSE 18.4 mph 28.8 mph N/A   Clear
5:35 PM 73.9 °F 49.8 °F 43% 30.08 in 10.0 mi SE 16.1 mph 28.8 mph N/A   Clear
5:55 PM 74.7 °F 49.6 °F 41% 30.06 in 10.0 mi SE 19.6 mph 26.5 mph N/A Thunderstorm Clear
6:15 PM 73.9 °F 50.2 °F 43% 30.04 in 10.0 mi SE 23.0 mph 29.9 mph N/A   Clear
6:35 PM 73.9 °F 50.2 °F 43% 30.02 in 10.0 mi SE 18.4 mph 25.3 mph N/A   Clear
6:55 PM 73.6 °F 50.0 °F 43% 30.02 in 10.0 mi SE 21.9 mph - N/A   Clear
7:15 PM 73.6 °F 50.5 °F 44% 30.04 in 10.0 mi SE 16.1 mph 21.9 mph N/A   Clear
7:35 PM 72.7 °F 50.9 °F 46% 30.04 in 10.0 mi SSE 12.7 mph 23.0 mph N/A   Clear
7:55 PM 72.5 °F 51.1 °F 47% 30.05 in 10.0 mi SSE 13.8 mph 19.6 mph N/A   Clear
8:15 PM 71.6 °F 50.5 °F 47% 30.04 in 10.0 mi SE 13.8 mph 20.7 mph N/A   Clear
8:35 PM 71.1 °F 50.7 °F 49% 30.06 in 10.0 mi SSE 8.1 mph 19.6 mph N/A   Scattered Clouds
8:55 PM 70.9 °F 51.1 °F 49% 30.08 in 10.0 mi South 4.6 mph - N/A   Mostly Cloudy
9:15 PM 70.2 °F 51.8 °F 52% 30.09 in 10.0 mi SE 4.6 mph - N/A   Overcast
9:35 PM 70.2 °F 51.8 °F 52% 30.10 in 10.0 mi SE 9.2 mph - N/A   Overcast
9:55 PM 70.2 °F 51.8 °F 52% 30.11 in 10.0 mi SE 11.5 mph - N/A   Overcast
10:15 PM 70.0 °F 51.8 °F 52% 30.12 in 10.0 mi SE 12.7 mph 19.6 mph N/A   Overcast
10:35 PM 69.8 °F 51.8 °F 53% 30.12 in 10.0 mi ESE 9.2 mph - N/A   Overcast
10:55 PM 69.1 °F 51.1 °F 53% 30.12 in 10.0 mi ESE 11.5 mph - N/A   Overcast
11:15 PM 68.5 °F 50.9 °F 53% 30.13 in 10.0 mi ESE 10.4 mph - N/A   Overcast
11:35 PM 67.6 °F 50.7 °F 55% 30.12 in 10.0 mi ESE 11.5 mph - N/A   Overcast
11:55 PM 67.1 °F 50.9 °F 56% 30.11 in 10.0 mi ESE 10.4 mph 16.1 mph N/A   Overcast